Location: Puketoi
(40.5833°S, 176.0167°E)
Time: 13:37:19
(UTC+00:00)

Cosmos 1484 Rocket - Pass Details

Date: 08 February 2023
Orbit: 495 x 547 km, 97.5° (Epoch: 23 March)

Event Time Altitude Azimuth Distance (km) Brightness Sun altitude
Exits shadow 15:45:55 37° 356° (N) 790 3.2 -18.3°
Maximum altitude 15:47:14 71° 281° (W) 537 2.5 -18.1°
Drops below altitude 10° 15:50:57 10° 196° (SSW) 1,734 5.6 -17.6°
Sets 15:53:04 0° 194° (SSW) 2,632 6.6 -17.3°
